EJU95BW LPPT-LEMD

Flight info

Callsign EJU95BW
Flight time 0h 51m
Altitude 32000
Route ORVED DCT OGERO DCT ROLDO DCT RUKER Z409 TLD
Aircraft A320/M-SDE2E3FGHIJ1RWXYZ/LB1

Departure

Time 2026-05-04 06:30
Airport Lisbon Humberto Delgado Airport (LPPT)

Arrival

Time 2026-05-04 07:22
Airport Adolfo Suárez Madrid–Barajas Airport (LEMD)
Time Latitude Longitude Altitude Speed Heading
2026-05-04 06:08 38.76564 -9.13396 353 ft 0 kts 73°
2026-05-04 06:25 38.76526 -9.13448 352 ft 0 kts 344°
2026-05-04 06:27 38.76643 -9.13525 350 ft 12 kts 284°
2026-05-04 06:28 38.76628 -9.13645 349 ft 15 kts 258°
2026-05-04 06:28 38.76604 -9.13791 346 ft 18 kts 258°
2026-05-04 06:28 38.76577 -9.13955 347 ft 19 kts 253°
2026-05-04 06:28 38.76501 -9.14097 349 ft 20 kts 239°
2026-05-04 06:29 38.76515 -9.14236 338 ft 8 kts 292°
2026-05-04 06:29 38.76539 -9.14309 336 ft 10 kts 292°
2026-05-04 06:29 38.76576 -9.14391 334 ft 12 kts 318°
2026-05-04 06:29 38.76642 -9.14388 333 ft 11 kts 22°
2026-05-04 06:30 38.76891 -9.14256 343 ft 74 kts 22°
2026-05-04 06:30 38.77565 -9.13895 364 ft 133 kts 22°
2026-05-04 06:30 38.78576 -9.13354 411 ft 174 kts 23°
2026-05-04 06:30 38.79678 -9.12716 1063 ft 175 kts 26°
2026-05-04 06:31 38.80781 -9.12059 1759 ft 178 kts 20°
2026-05-04 06:31 38.81970 -9.11329 2087 ft 202 kts 27°
2026-05-04 06:31 38.83264 -9.10369 2461 ft 227 kts 27°
2026-05-04 06:31 38.84694 -9.09291 2969 ft 248 kts 28°
2026-05-04 06:32 38.86200 -9.08138 3761 ft 255 kts 28°
2026-05-04 06:33 38.93706 -8.94497 9571 ft 295 kts 62°
2026-05-04 06:34 38.94586 -8.92132 10294 ft 302 kts 62°
2026-05-04 06:34 38.95526 -8.89610 10572 ft 325 kts 62°
2026-05-04 06:34 38.96532 -8.86914 10930 ft 342 kts 62°
2026-05-04 06:34 38.97570 -8.84127 11552 ft 349 kts 62°
2026-05-04 06:35 38.98624 -8.81286 12239 ft 355 kts 62°
2026-05-04 06:36 39.06409 -8.60267 16800 ft 384 kts 62°
2026-05-04 06:37 39.07562 -8.57151 17432 ft 387 kts 62°
2026-05-04 06:37 39.08723 -8.54007 18063 ft 390 kts 62°
2026-05-04 06:37 39.09886 -8.50843 18642 ft 393 kts 62°
2026-05-04 06:37 39.11059 -8.47643 19174 ft 397 kts 62°
2026-05-04 06:38 39.12242 -8.44414 19696 ft 400 kts 62°
2026-05-04 06:38 39.13437 -8.41155 20224 ft 404 kts 62°
2026-05-04 06:40 39.22135 -8.17371 23618 ft 435 kts 63°
2026-05-04 06:40 39.23407 -8.13870 24002 ft 439 kts 63°
2026-05-04 06:40 39.24720 -8.10247 24391 ft 443 kts 63°
2026-05-04 06:40 39.26030 -8.06632 24753 ft 446 kts 63°
2026-05-04 06:41 39.27334 -8.03035 25122 ft 450 kts 63°
2026-05-04 06:41 39.28620 -7.99330 25480 ft 454 kts 65°
2026-05-04 06:41 39.29807 -7.95520 25834 ft 458 kts 68°
2026-05-04 06:41 39.30914 -7.91641 26182 ft 462 kts 69°
2026-05-04 06:42 39.31982 -7.87717 26626 ft 463 kts 69°
2026-05-04 06:42 39.33044 -7.83785 27043 ft 464 kts 69°
2026-05-04 06:42 39.34128 -7.79839 27373 ft 467 kts 69°
2026-05-04 06:44 39.42771 -7.51854 29401 ft 492 kts 64°
2026-05-04 06:44 39.44209 -7.47819 29678 ft 495 kts 64°
2026-05-04 06:44 39.45645 -7.43749 29956 ft 498 kts 64°
2026-05-04 06:45 39.47049 -7.39696 30212 ft 501 kts 65°
2026-05-04 06:45 39.48454 -7.35561 30444 ft 504 kts 65°
2026-05-04 06:45 39.49853 -7.31387 30689 ft 506 kts 65°
2026-05-04 06:45 39.51254 -7.27194 30910 ft 508 kts 65°
2026-05-04 06:46 39.52662 -7.22988 31146 ft 510 kts 65°
2026-05-04 06:46 39.54077 -7.18765 31341 ft 512 kts 66°
2026-05-04 06:46 39.55497 -7.14531 31579 ft 514 kts 66°
2026-05-04 06:46 39.56921 -7.10285 31885 ft 513 kts 66°
2026-05-04 06:48 39.66421 -6.81782 32043 ft 483 kts 66°
2026-05-04 06:48 39.67741 -6.77817 32049 ft 484 kts 66°
2026-05-04 06:50 39.78349 -6.45617 32030 ft 484 kts 67°
2026-05-04 06:51 39.80390 -6.37296 32013 ft 483 kts 83°
2026-05-04 06:51 39.81190 -6.28634 32013 ft 483 kts 86°
2026-05-04 06:52 39.81956 -6.19953 32016 ft 484 kts 86°
2026-05-04 06:52 39.82732 -6.11249 32019 ft 484 kts 86°
2026-05-04 06:53 39.83118 -6.06897 31896 ft 483 kts 86°
2026-05-04 06:53 39.83497 -6.02604 31645 ft 475 kts 87°
2026-05-04 06:53 39.83870 -5.98356 31398 ft 471 kts 87°
2026-05-04 06:53 39.84236 -5.94136 31149 ft 468 kts 87°
2026-05-04 06:54 39.84598 -5.89937 30896 ft 466 kts 87°
2026-05-04 06:54 39.84953 -5.85764 30653 ft 464 kts 87°
2026-05-04 06:54 39.85308 -5.81598 30411 ft 462 kts 87°
2026-05-04 06:54 39.85661 -5.77448 30167 ft 460 kts 87°
2026-05-04 06:55 39.86012 -5.73315 29901 ft 458 kts 87°
2026-05-04 06:55 39.86360 -5.69209 29571 ft 457 kts 88°
2026-05-04 06:55 39.86707 -5.65102 29290 ft 456 kts 88°
2026-05-04 06:55 39.87048 -5.61008 29002 ft 454 kts 88°
2026-05-04 06:56 39.87380 -5.56986 28733 ft 452 kts 88°
2026-05-04 06:57 39.89665 -5.28983 26840 ft 437 kts 89°
2026-05-04 06:58 39.89985 -5.25056 26579 ft 435 kts 89°
2026-05-04 06:58 39.90300 -5.21155 26322 ft 433 kts 89°
2026-05-04 06:58 39.90611 -5.17264 26069 ft 431 kts 89°
2026-05-04 06:58 39.90918 -5.13390 25831 ft 429 kts 89°
2026-05-04 06:59 39.91223 -5.09540 25579 ft 427 kts 89°
2026-05-04 06:59 39.91526 -5.05700 25330 ft 425 kts 89°
2026-05-04 06:59 39.91825 -5.01876 25088 ft 423 kts 89°
2026-05-04 06:59 39.92120 -4.98069 24845 ft 421 kts 89°
2026-05-04 07:01 39.94135 -4.72087 23124 ft 404 kts 89°
2026-05-04 07:01 39.94404 -4.68455 22847 ft 402 kts 89°
2026-05-04 07:02 39.94668 -4.64848 22580 ft 399 kts 89°
2026-05-04 07:02 39.94934 -4.61253 22311 ft 397 kts 89°
2026-05-04 07:02 39.95201 -4.57676 22044 ft 395 kts 89°
2026-05-04 07:02 39.95466 -4.54122 21756 ft 392 kts 89°
2026-05-04 07:03 39.95727 -4.50594 21497 ft 390 kts 89°
2026-05-04 07:03 39.95978 -4.47131 21239 ft 388 kts 89°
2026-05-04 07:03 39.96233 -4.43604 20957 ft 383 kts 89°
2026-05-04 07:03 39.96478 -4.40210 20542 ft 381 kts 90°
2026-05-04 07:04 39.96427 -4.36793 20124 ft 372 kts 104°
2026-05-04 07:04 39.95849 -4.33552 19724 ft 363 kts 116°
2026-05-04 07:04 39.94814 -4.30612 19292 ft 353 kts 128°
2026-05-04 07:04 39.93407 -4.28056 18926 ft 343 kts 137°
2026-05-04 07:05 39.91895 -4.25656 18538 ft 342 kts 137°
2026-05-04 07:05 39.90395 -4.23256 18146 ft 341 kts 137°
2026-05-04 07:05 39.88902 -4.20865 17743 ft 339 kts 136°
2026-05-04 07:05 39.87422 -4.18497 17370 ft 336 kts 136°
2026-05-04 07:06 39.84983 -4.14584 16743 ft 334 kts 133°
2026-05-04 07:06 39.83782 -4.11976 16342 ft 341 kts 119°
2026-05-04 07:06 39.83059 -4.09015 15934 ft 347 kts 105°
2026-05-04 07:07 39.82660 -4.05910 15519 ft 348 kts 103°
2026-05-04 07:08 39.86802 -3.86328 12590 ft 331 kts 45°
2026-05-04 07:09 39.88403 -3.84213 12234 ft 327 kts 45°
2026-05-04 07:09 39.89994 -3.82115 11859 ft 325 kts 45°
2026-05-04 07:09 39.91581 -3.80018 11476 ft 324 kts 45°
2026-05-04 07:09 39.93148 -3.77942 11136 ft 321 kts 45°
2026-05-04 07:10 39.94709 -3.75866 10793 ft 319 kts 45°
2026-05-04 07:10 39.96254 -3.73803 10361 ft 315 kts 45°
2026-05-04 07:12 40.06678 -3.59864 7861 ft 298 kts 45°
2026-05-04 07:12 40.08122 -3.57929 7530 ft 296 kts 45°
2026-05-04 07:12 40.09537 -3.56032 7195 ft 294 kts 45°
2026-05-04 07:12 40.10976 -3.54101 6854 ft 292 kts 45°
2026-05-04 07:13 40.12370 -3.52229 6522 ft 290 kts 45°
2026-05-04 07:13 40.13770 -3.50343 6222 ft 286 kts 45°
2026-05-04 07:13 40.15124 -3.48517 6083 ft 274 kts 45°
2026-05-04 07:14 40.20480 -3.41804 5074 ft 262 kts 38°
2026-05-04 07:14 40.22002 -3.40553 4730 ft 258 kts 26°
2026-05-04 07:15 40.23583 -3.39443 4358 ft 257 kts 25°
2026-05-04 07:15 40.25245 -3.38662 4034 ft 251 kts
2026-05-04 07:15 40.26926 -3.38543 3991 ft 233 kts 351°
2026-05-04 07:15 40.28472 -3.38813 3990 ft 217 kts 349°
2026-05-04 07:16 40.29921 -3.39165 3993 ft 207 kts 336°
2026-05-04 07:16 40.31155 -3.40057 4000 ft 201 kts 318°
2026-05-04 07:16 40.32261 -3.41175 3998 ft 200 kts 318°
2026-05-04 07:16 40.33363 -3.42289 4005 ft 200 kts 319°
2026-05-04 07:17 40.34464 -3.43401 4007 ft 200 kts 319°
2026-05-04 07:17 40.35564 -3.44512 4007 ft 200 kts 318°
2026-05-04 07:17 40.36666 -3.45626 4006 ft 200 kts 318°
2026-05-04 07:17 40.37762 -3.46733 4012 ft 192 kts 318°
2026-05-04 07:18 40.38770 -3.47747 3838 ft 174 kts 317°
2026-05-04 07:18 40.39676 -3.48663 3625 ft 156 kts 317°
2026-05-04 07:18 40.40511 -3.49509 3436 ft 148 kts 316°
2026-05-04 07:18 40.41317 -3.50327 3244 ft 145 kts 316°
2026-05-04 07:19 40.42112 -3.51129 3058 ft 144 kts 317°
2026-05-04 07:19 40.42911 -3.51945 2839 ft 146 kts 321°
2026-05-04 07:19 40.43717 -3.52761 2636 ft 146 kts 322°
2026-05-04 07:19 40.44515 -3.53576 2433 ft 145 kts 322°
2026-05-04 07:20 40.45308 -3.54379 2228 ft 144 kts 322°
2026-05-04 07:20 40.46098 -3.55177 2048 ft 143 kts 323°
2026-05-04 07:20 40.46866 -3.55949 1973 ft 128 kts 322°
2026-05-04 07:20 40.47452 -3.56544 1993 ft 82 kts 322°
2026-05-04 07:22 40.47977 -3.57347 2004 ft 14 kts 142°
2026-05-04 07:22 40.47887 -3.57256 2003 ft 19 kts 142°
2026-05-04 07:23 40.47770 -3.57138 1999 ft 23 kts 142°
2026-05-04 07:23 40.47633 -3.56999 1996 ft 26 kts 143°
2026-05-04 07:23 40.47505 -3.56871 1992 ft 23 kts 142°
2026-05-04 07:23 40.47382 -3.56746 1988 ft 22 kts 142°
2026-05-04 07:24 40.47256 -3.56616 1986 ft 23 kts 142°
2026-05-04 07:24 40.47130 -3.56499 1980 ft 23 kts 154°
2026-05-04 07:24 40.46979 -3.56451 1977 ft 22 kts 181°
2026-05-04 07:24 40.46839 -3.56462 1979 ft 13 kts 189°
2026-05-04 07:25 40.46802 -3.56564 1974 ft 14 kts 273°
2026-05-04 07:26 40.46774 -3.56781 1974 ft 0 kts 327°